Tracking 27420 objects as of 11-Jun-2023
HD Live streaming from Space Station
objects crossing your sky now

STARLINK-5970

Track STARLINK-5970 now!
10-day predictions
STARLINK-5970 is classified as:


NORAD ID: 56450
Int'l Code: 2023-064C
Perigee: 380.2 km
Apogee: 384.8 km
Inclination: 70.0 °
Period: 92.1 minutes
Semi major axis: 6753 km
RCS: Unknown
Launch date: May 10, 2023
Source: United States (US)
Launch site: AIR FORCE WESTERN TEST RANGE (AFWTR)
Your satellite tracking list
Your tracking list is empty




NASA's NSSDC Master Catalog

Two Line Element Set (TLE):
1 56450U 23064C   23161.91667824 -.00900673  00000-0 -10317-1 0  9991
2 56450  69.9999 157.6548 0003416 265.6909 302.1533 15.64269997  5279
Source of the keplerian elements: AFSPC